Other Public Products
Issued by NWS Grand Forks, ND

Home | Current Version | Previous Version | Graphics & Text | Print | Product List | Glossary On
Versions: 1 2 3 4 5 6 7 8 9 10 11 12 13 14 15 16 17 18 19 20 21 22 23 24 25 26 27 28 29 30 31 32 33 34 35 36 37 38 39 40 41 42 43 44 45 46 47 48 49 50
000
FPUS83 KFGF 011510
OPUFGF
PRAIRIE TO PINES WEATHER ROUNDUP
NATIONAL WEATHER SERVICE EASTERN NORTH DAKOTA/GRAND FORKS ND
1000 AM CDT SAT AUG 01 2015

 **SATELLITE DATA USED TO AUGMENT SKY COVER AT AUTOMATED STATIONS**
 *****  WEATHER ACROSS EASTERN NORTH DAKOTA  *****

CITY           SKY/WX    TMP DP  RH WIND       PRES   REMARKS
GRAND FORKS    MOSUNNY   74  56  53 CALM      29.91F
GRAND FORKS AF SUNNY     76  56  51 VRB2      29.91F
GRAND CITY NWS   N/A     72 N/A N/A W1          N/A
BUXTON         NOT AVBL
DEVILS LAKE    SUNNY     73  52  46 S9        29.91F
FARGO          SUNNY     75  55  49 VRB3      29.94F
WAHPETON ARPT  SUNNY     72  55  56 S6        29.96S
$$

 *****  WEATHER ACROSS CENTRAL AND WESTERN NORTH DAKOTA  *****

CITY           SKY/WX    TMP DP  RH WIND       PRES   REMARKS
JAMESTOWN      MOSUNNY   74  60  61 SE8       29.92F
BISMARCK       SUNNY     75  58  55 S6        29.88F
MINOT          SUNNY     72  54  53 SE5       29.90F
MINOT AFB      SUNNY     74  57  55 SE2       29.90S
GARRISON         N/A     73  59  61 E5        29.91F
WILLISTON      SUNNY     73  57  57 S6        29.92F
DICKINSON      SUNNY     71  53  52 NW12      29.93S
HETTINGER      SUNNY     80  52  37 W10       29.95F
$$

 *****  OTHER OBSERVATIONS NORTHEAST NORTH DAKOTA  *****

CITY           SKY/WX    TMP DP  RH WIND       PRES   REMARKS
WALHALLA       FAIR      73  54  49 MISG      29.89F
LANGDON        FAIR      73  55  53 SW7       29.92F
CAVALIER       FAIR      73  55  53 SW7       29.89F
GRAFTON        FAIR      73  57  56 SW6       29.90F
CANDO          NOT AVBL
FORT TOTTEN      N/A     74  56  53 S5        29.95S
ROLLA          FAIR      68  55  64 SW10      29.92F
RUGBY          NOT AVBL
 ***** THE ABOVE OBSERVATIONS ARE NON NWS ARE NOT QUALITY
        CONTROLLED AND MAY MIS-REPORT RAIN FOR SNOW...
$$

 *****  OTHER OBSERVATIONS SOUTHEAST NORTH DAKOTA *****

CITY           SKY/WX    TMP DP  RH WIND       PRES   REMARKS
COOPERSTOWN    NOT AVBL
VALLEY CITY    FAIR      73  59  60 SE6       29.93F
OAKES            N/A     75  64  69 SE8       29.94F
GWINNER        FAIR      75  61  60 SE8       29.95S
BUFFALO        NOT AVBL
WYNDMERE         N/A     79  57  47 SE5         N/A
 ***** THE ABOVE OBSERVATIONS ARE NON NWS ARE NOT QUALITY
       CONTROLLED AND MAY MIS-REPORT RAIN FOR SNOW...
$$

  *****  WEATHER ACROSS NORTHERN MINNESOTA  *****

CITY           SKY/WX    TMP DP  RH WIND       PRES   REMARKS
FLAG ISLAND    SUNNY     72  52  49 W9        29.85F
WARROAD        SUNNY     70  61  73 W6        29.89F
ROSEAU         SUNNY     72  61  68 SW5       29.89F
HALLOCK        SUNNY     70  57  64 S3        29.89F
THF RVR FALLS  SUNNY     70  55  60 SW8       29.93F
HALSTAD        NOT AVBL
FOSSTON        MOSUNNY   68  55  64 SW3       29.95F
BAUDETTE       SUNNY     72  55  55 W9        29.89F
WASKISH        SUNNY     70  61  73 SW8       29.91F
CROOKSTON      SUNNY     70  55  60 CALM      29.93F
$$
  *****  WEATHER ACROSS CENTRAL AND WEST MINNESOTA  *****

CITY           SKY/WX    TMP DP  RH WIND       PRES   REMARKS
BEMIDJI        SUNNY     71  54  56 W6        29.95S
PARK RAPIDS    SUNNY     73  54  51 W7        29.96F
WADENA         SUNNY     73  55  53 W5        29.96F
DETROIT LAKES  SUNNY     72  54  53 W5        29.98S
MOORHEAD       SUNNY     72  59  64 CALM      29.95S
FERGUS FALLS   SUNNY     73  57  56 SW3       29.96S
ELBOW LAKE     FAIR      73  59  61 S3        29.97F
MORRIS MN      SUNNY     75  63  64 S3        29.97S
STAPLES        SUNNY     73  54  49 W5        29.97S
WHEATON        SUNNY     73  61  64 SE6       29.98S
$$
  *****  WEATHER ELSEWHERE ACROSS MINNESOTA  *****

CITY           SKY/WX    TMP DP  RH WIND       PRES   REMARKS
DULUTH         SUNNY     74  54  49 W10       29.92F
INTRNTL FALLS  SUNNY     71  54  54 W12       29.88F
ELY            SUNNY     70  54  56 W7        29.90F
CLOQUET        SUNNY     72  52  49 W8        29.94S
BRAINERD       SUNNY     74  52  46 W6        29.97S
HIBBING        SUNNY     73  52  47 NW14      29.93F
ALEXANDRIA     SUNNY     76  52  43 SW3       30.00S
SAINT CLOUD    SUNNY     76  55  48 W5        29.97S
MINNEAPOLIS    MOSUNNY   76  61  59 S3        29.97S
$$

  *****  WEATHER ACROSS SOUTH DAKOTA  *****

CITY           SKY/WX    TMP DP  RH WIND       PRES   REMARKS
SIOUX FALLS    PTSUNNY   76  67  73 SW6       30.01F
BROOKINGS      MOSUNNY   73  64  73 S5        30.02F
WATERTOWN      MOSUNNY   75  65  70 SE7       29.99S
HURON          MOSUNNY   75  67  76 S12       29.95F
SISSETON         N/A     73  59  61 S7        29.96S
ABERDEEN       SUNNY     75  63  66 SE7       29.93F
MITCHELL       CLOUDY    76  66  71 S14G21    29.99S
PIERRE         SUNNY     80  61  52 S8        29.92S
MOBRIDGE       SUNNY     77  65  66 SE10      29.90F
RAPID CITY     SUNNY     79  59  50 SW9       30.03R
$$

  *****  SOME WEATHER IN NEARBY STATES *****

CITY           SKY/WX    TMP DP  RH WIND       PRES   REMARKS
GLASGOW MT     SUNNY     71  51  49 SE10      29.92S
GREAT FALLS MT SUNNY     76  34  21 SW13      30.04S
CHEYENNE WY    SUNNY     76  53  44 S9        30.23S
SCOTTSBLUFF NE SUNNY     78  58  49 W5        30.09F
OMAHA NE       CLOUDY    73  63  70 SW10      30.05F
DES MOINES IA  CLOUDY    80  66  62 SW9       30.03F
DAVENPORT IA   SUNNY     78  63  59 SW8       30.03S
CHICAGO IL     MOSUNNY   78  57  48 NW12      29.98F
EAU CLAIRE WI  MOSUNNY   74  56  53 S3        29.96F
LA CROSSE WI   SUNNY     75  59  57 SW3       29.96F
$$

  *****  SOME NATIONAL WEATHER *****

CITY           SKY/WX    TMP DP  RH WIND       PRES   REMARKS
LA GUARDIA NY  CLOUDY    83  59  44 W12       29.80R
RALEIGH NC     MOSUNNY   86  63  45 VRB3      29.97R
ATLANTA GA     PTSUNNY   81  62  52 E13G22    30.00R
NEW ORLEANS LA MOSUNNY   85  67  54 NE9       29.93S
OKLAHOMA CITY  PTSUNNY   82  69  64 S8        30.10S
ALBUQUERQUE NM PTSUNNY   71  59  65 NW7       30.29S
SALT LAKE CITY MOSUNNY   75  38  26 SE9       30.15R
LOS ANGELES CA CLOUDY    68  63  84 SW6       29.99S
BOISE ID       SUNNY     79  37  22 SE8       30.04R
SEATTLE WA     MOSUNNY   70  47  43 NE5       30.04R
$$

*** WEATHER ACROSS MANITOBA...SASKATCHEWAN AND ONTARIO ***
                ***ONTARIO***

CITY           SKY/WX    TMP DP  RH WIND       PRES   REMARKS
GERALDTON      PTSUNNY   66  57  72 SW15G21   29.74F
THUNDER BAY    PTSUNNY   70  59  68 W14G21    29.82F
SIOUX LOOKOUT  PTSUNNY   68  57  68 W13       29.79F
TORONTO        MOSUNNY   75  54  46 NW13G21   29.85S
BIG TROUT LK   PTSUNNY   64  54  68 W15G24    29.55
PICKLE LAKE    PTSUNNY   64  52  63 W14       29.69F
DRYDEN         SUNNY     68  57  68 W14       29.83S
KENORA         MOSUNNY   70  54  56 W8        29.85F
$$
                *** MANITOBA***

CITY           SKY/WX    TMP DP  RH WIND       PRES   REMARKS
BRANDON        MOSUNNY   68  57  68 W7        29.90S
DAUPHIN        SUNNY     68  57  68 W9        29.86R
ISLAND LAKE    MOSUNNY   64  52  63 W15G21    29.66F
PILOT MOUND      N/A     70  55  60 SW6         N/A
THE PAS        PTSUNNY   64  55  72 W13       29.80F
THOMPSON       PTSUNNY   63  46  55 NW16G28   29.67F
WINNIPEG       MOSUNNY   72  57  60 W9        29.86F
LYNN LAKE      SUNNY     61  45  55 N15G25    29.76F
CHURCHILL      CLOUDY    48  46  93 N21G29    29.45S
$$
                ***SASKATCHEWAN***

CITY           SKY/WX    TMP DP  RH WIND       PRES   REMARKS
ESTEVAN        NOT AVBL
KINDERSLEY     PTSUNNY   68  55  64 NE10      29.87F
LLOYDMINSTER   CLOUDY    61  55  82 W9        29.94R
PRINCE ALBERT  CLOUDY    61  59  94 CALM      29.87F
REGINA         MOSUNNY   70  55  60 S7        29.88F
YORKTON        MOSUNNY   66  55  68 SW6       29.86F
N. BATTLEFORD  SUNNY     64  57  77 NW6       29.92R



USA.gov is the U.S. government's official web portal to all federal, state and local government web resources and services.